Location: Pine Mountain Observatory
(43.7910°N, 120.9377°W)
Time: 19:53:01
(UTC-07:00)

A-11 Canister half - Visible Passes

Search period start: 25 May 2019 00:00
Search period end: 04 June 2019 00:00
Orbit: 1517 x 1683 km, 47.2° (Epoch: 24 May)

Date Brightness Start Highest point End Pass type
(mag) Time Alt. Az. Time Alt. Az. Time Alt. Az.
25 May 9.0 01:32:17 10° WNW 01:41:12 54° SW 01:45:11 34° SSE visible
25 May 10.2 03:39:23 10° W 03:43:13 16° WSW 03:43:13 16° WSW visible
25 May 9.2 20:58:48 10° W 21:08:08 76° NNW 21:17:26 10° ENE visible
25 May 9.0 23:04:18 10° WNW 23:13:36 79° NNE 23:22:59 10° E visible
26 May 8.9 01:09:22 10° WNW 01:18:20 57° SW 01:21:55 38° SSE visible
26 May 10.2 03:16:09 10° W 03:20:00 17° WSW 03:20:00 17° WSW visible
26 May 9.0 22:41:22 10° WNW 22:50:41 78° NNE 23:00:02 10° E visible
27 May 8.9 00:46:27 10° WNW 00:55:28 60° SW 00:59:05 39° SSE visible
27 May 10.2 02:52:58 10° W 02:57:11 18° WSW 02:57:11 18° WSW visible
27 May 9.1 22:18:27 10° WNW 22:27:45 77° N 22:37:05 10° E visible
28 May 8.9 00:23:33 10° WNW 00:32:36 62° SW 00:36:28 38° SSE visible
28 May 10.1 02:29:50 10° W 02:34:36 20° WSW 02:34:36 20° WSW visible
28 May 9.1 21:55:30 10° WNW 22:04:49 75° N 22:14:07 10° E visible
29 May 8.9 00:00:38 10° WNW 00:09:44 65° SSW 00:14:02 35° SE visible
29 May 10.0 02:06:43 10° W 02:12:10 22° WSW 02:12:10 22° WSW visible
29 May 9.2 21:32:34 10° WNW 21:41:52 75° N 21:51:10 10° E visible
29 May 8.9 23:37:43 10° WNW 23:46:51 68° SSW 23:51:42 32° SE visible
30 May 9.9 01:43:38 10° W 01:49:50 24° WSW 01:49:50 24° WSW visible
30 May 9.2 21:09:37 10° WNW 21:18:57 74° N 21:28:13 10° E visible
30 May 8.9 23:14:48 10° WNW 23:23:59 71° SSW 23:29:26 28° SE visible
31 May 9.8 01:20:35 10° W 01:27:36 26° SW 01:27:36 26° SW visible
31 May 8.9 22:51:53 10° WNW 23:01:06 74° SSW 23:07:16 24° SE visible
01 Jun 9.8 00:57:33 10° WNW 01:04:53 27° SW 01:05:25 27° SW visible
01 Jun 8.9 22:28:57 10° WNW 22:38:13 76° SSW 22:45:09 20° SE visible
02 Jun 9.7 00:34:32 10° WNW 00:42:05 29° SW 00:43:19 28° SW visible
02 Jun 8.9 22:06:03 10° WNW 22:15:20 79° SSW 22:23:05 16° ESE visible
03 Jun 9.7 00:11:31 10° WNW 00:19:15 31° SW 00:21:15 29° SSW visible
03 Jun 9.0 21:43:07 10° WNW 21:52:26 82° SSW 22:01:04 13° ESE visible
